This demonstration page uses our WeatherBlox Daily Observations layout. Learn more.

39.92423, -83.80882

Hourly Observations for April 9, 2020

Temp ( °F °C ) Dew Point ( °F °C ) Humidity (%) Winds ( mph kmh ) Pressure ( in mb ) Visibility ( mi km ) Precip ( " mm )
12:56 am 00:56 Clear 55 12.8 55 12.8 100 100 WSW 8 13 29.52 1000 10 16.0934 0.001 0.001
1:56 am 01:56 Clear 54 12.2 54 12.2 100 100 WSW 12 19 29.55 1001 10 16.0934 0 0
2:45 am 02:45 Mostly Cloudy 54 12 54 12 100 100 W 13 20 29.56 1001 10 16.0934 0 0
2:56 am 02:56 Cloudy 54 12.2 54 12.2 100 100 W 14 22 29.56 1001 10 16.0934 0 0
2:58 am 02:58 Cloudy 54 12 54 12 100 100 W 14 22 29.56 1001 10 16.0934 0 0
3:15 am 03:15 Cloudy 54 12 54 12 100 100 WNW 14 22 29.57 1001 10 16.0934 0 0
3:23 am 03:23 Cloudy 54 12 54 12 100 100 WNW 15 24 29.58 1002 10 16.0934 0 0
3:41 am 03:41 Cloudy 54 12 54 12 100 100 WNW 17 28 29.59 1002 10 16.0934 0 0
3:56 am 03:56 Cloudy 52 11.1 52 11.1 100 100 WNW 12 19 29.58 1002 10 16.0934 0 0
4:21 am 04:21 Cloudy 52 11 52 11 100 100 W 9 15 29.59 1002 10 16.0934 0 0
4:42 am 04:42 Cloudy 52 11 52 11 100 100 WNW 18 30 29.6 1002 10 16.0934 0 0
4:52 am 04:52 Cloudy 52 11 50 10 94 94 WNW 14 22 29.6 1002 10 16.0934 0 0
4:56 am 04:56 Cloudy 50 10 49 9.4 96 96 WNW 16 26 29.59 1002 10 16.0934 0 0
5:05 am 05:05 Cloudy 50 10 48 9 94 94 WNW 15 24 29.6 1002 10 16.0934 0 0
5:56 am 05:56 Cloudy 49 9.4 45 7.2 86 86 WNW 23 37 29.6 1002 10 16.0934 0 0
6:08 am 06:08 Cloudy 48 9 45 7 87 87 WNW 20 31 29.63 1003 10 16.0934 0 0
6:37 am 06:37 Cloudy 48 9 45 7 87 87 W 18 30 29.64 1004 10 16.0934 0 0
6:56 am 06:56 Cloudy 48 8.9 44 6.7 86 86 W 24 39 29.62 1003 10 16.0934 0 0
7:07 am 07:07 Mostly Cloudy 48 9 43 6 82 82 WNW 18 30 29.65 1004 10 16.0934 0 0
7:17 am 07:17 Cloudy 48 9 43 6 82 82 W 23 37 29.65 1004 10 16.0934 0 0
7:56 am 07:56 Cloudy 46 7.8 40 4.4 79 79 WNW 24 39 29.67 1005 10 16.0934 0 0
8:56 am 08:56 Mostly Cloudy 45 7.2 37 2.8 74 74 WNW 29 46 29.68 1005 10 16.0934 0 0
9:09 am 09:09 Mostly Sunny 45 7 36 2 71 71 WNW 24 39 29.7 1006 10 16.0934 0 0
9:56 am 09:56 Mostly Sunny 46 7.8 35 1.7 66 66 WNW 25 41 29.69 1006 10 16.0934 0 0
10:56 am 10:56 Mostly Cloudy 47 8.3 36 2.2 66 66 WNW 18 30 29.72 1007 10 16.0934 0 0
11:56 am 11:56 Mostly Cloudy 48 8.9 33 0.6 56 56 WNW 23 37 29.73 1007 10 16.0934 0 0
12:56 pm 12:56 Partly Cloudy 49 9.4 34 1.1 56 56 NW 17 28 29.71 1006 10 16.0934 0 0
1:56 pm 13:56 Partly Cloudy 51 10.6 31 -0.6 46 46 W 24 39 29.7 1006 10 16.0934 0 0
2:56 pm 14:56 Mostly Cloudy 51 10.6 28 -2.2 41 41 W 30 48 29.69 1005 10 16.0934 0 0
3:56 pm 15:56 Cloudy 49 9.4 24 -4.4 38 38 WNW 31 50 29.68 1005 10 16.0934 0 0
4:56 pm 16:56 Cloudy 47 8.3 24 -4.4 41 41 W 29 46 29.69 1005 10 16.0934 0 0
5:56 pm 17:56 Mostly Sunny 47 8.3 25 -3.9 42 42 W 23 37 29.72 1006 10 16.0934 0 0
6:56 pm 18:56 Cloudy 44 6.7 26 -3.3 49 49 WNW 22 35 29.74 1007 10 16.0934 0 0
7:56 pm 19:56 Cloudy 40 4.4 32 0 73 73 W 20 31 29.76 1008 10 16.0934 0 0
8:56 pm 20:56 Cloudy with Light Rain 39 3.9 32 0 76 76 WNW 18 30 29.79 1009 10 16.0934 0.001 0.001
9:56 pm 21:56 Mostly Cloudy 39 3.9 32 0 76 76 W 15 24 29.8 1009 10 16.0934 0.001 0.001
10:37 pm 22:37 Partly Cloudy 36 2 34 1 93 93 WNW 12 19 29.84 1011 10 16.0934 0.001 0.001
10:56 pm 22:56 Mostly Clear 35 1.7 34 1.1 96 96 WNW 8 13 29.82 1010 10 16.0934 0.001 0.001
11:56 pm 23:56 Mostly Cloudy 35 1.7 33 0.6 93 93 W 14 22 29.8 1009 10 16.0934 0 0

Powered by AerisWeather